Regional Weather Roundup
Issued by NWS

Home | Current Version | Previous Version | Graphics & Text | Print | Product List | Glossary On
Versions: 1 2 3 4 5 6 7 8 9 10 11 12 13 14 15 16 17 18 19 20 21 22 23 24 25 26 27 28 29 30 31 32 33 34 35 36 37 38 39 40 41 42 43 44 45 46 47 48 49 50
000
ASUS43 KMKX 222200
RWRWI

WISCONSIN REGIONAL WEATHER ROUNDUP
NATIONAL WEATHER SERVICE MILWAUKEE/SULLIVAN WI
500 PM CDT TUE MAY 22 2018

NOTE: "FAIR" INDICATES FEW OR NO CLOUDS BELOW 12,000 FEET WITH NO
SIGNIFICANT WEATHER AND/OR OBSTRUCTIONS TO VISIBILITY.

WIZ001-002-006>008-014>016-023>028-222300-
NORTHWEST WISCONSIN

CITY           SKY/WX    TMP DP  RH WIND       PRES   REMARKS
SUPERIOR ARPT  FAIR      76  55  47 S6        29.99S
ASHLAND        FAIR      78  52  40 N3        30.00F
HAYWARD        FAIR      75  55  49 SW7       30.03S
SIREN          CLOUDY    73  54  51 CALM      30.03F
CUMBERLAND     PTSUNNY   68  54  60 CALM      30.05S
RICE LAKE      FAIR      73  54  50 CALM      30.05F
CHETEK         FAIR      70  56  61 CALM      30.04F
LADYSMITH      FAIR      73  55  53 SW6       30.06S
EAU CLAIRE     NOT AVBL
MENOMONIE      PTSUNNY   71  56  59 S3        30.05S
NEW RICHMOND   PTSUNNY   71  53  52 CALM      30.05R
OSCEOLA        CLOUDY    72  54  52 CALM      30.06S HAZE
$$

WIZ003>005-009-010-017-018-222300-
NORTH CENTRAL WISCONSIN

CITY           SKY/WX    TMP DP  RH WIND       PRES   REMARKS
MANITOWISH WTR CLOUDY    74  52  46 W8        30.03R
ARBOR VITAE    CLOUDY    77  54  44 W9        30.02S
WOODRUFF       CLOUDY    77  54  44 W9        30.02S
RHINELANDER    CLOUDY    79  52  38 W8        30.02S
EAGLE RIVER    FAIR      76  42  28 W8        30.01S
LAND O LAKES   FAIR      78  41  26 NW6       30.03R
PHILLIPS       CLOUDY    72  56  57 NW6       30.02F
TOMAHAWK       CLOUDY    75  52  44 W5        30.03S
MEDFORD        FAIR      71  55  56 W7        30.04R
MERRILL        FAIR      74  58  55 W8        30.03S
$$

WIZ029-030-035-036-043>047-222300-
CENTRAL WISCONSIN

CITY           SKY/WX    TMP DP  RH WIND       PRES   REMARKS
WAUSAU         FAIR      71  56  58 CALM      30.02S
MOSINEE        MOSUNNY   72  57  60 SW7       30.05S
MARSHFIELD     FAIR      69  58  67 W8        30.05R
STEVENS POINT  FAIR      70  55  58 SW9       30.04S
WAUPACA        CLOUDY    74  56  53 W5        30.03S
WAUTOMA        PTSUNNY   70  58  65 S7        30.05S
WISC RAPIDS    PTSUNNY   70  57  63 SW9       30.06S
CAMP DOUGLAS   NOT AVBL
$$

WIZ011>013-019>022-031-037>040-048>050-222300-
NORTHEAST WISCONSIN

CITY           SKY/WX    TMP DP  RH WIND       PRES   REMARKS
ANTIGO         FAIR      73  55  53 W10       30.03S
SHAWANO        FAIR      75  55  50 SW3       30.01S
OCONTO         FAIR      71  54  54 SE7       30.01S
STURGEON BAY   FAIR      72  46  39 SE5       30.02F HAZE
GREEN BAY      FAIR      75  58  55 W7        30.01F
MANITOWOC      FAIR      62  53  72 E7        30.03F
APPLETON       PTSUNNY   72  54  53 W8        30.01F
CLINTONVILLE   FAIR      74  54  49 W7        30.02S
OSHKOSH        PTSUNNY   71  58  63 CALM      30.04S
$$

WIZ032>034-041-042-053>061-222300-
SOUTHWEST WISCONSIN

CITY           SKY/WX    TMP DP  RH WIND       PRES   REMARKS
LA CROSSE      CLOUDY    67  57  70 CALM      30.06S
SPARTA         CLOUDY    62  57  81 CALM      30.08S
VIROQUA        CLOUDY    64  59  85 CALM      30.07S
BOSCOBEL       CLOUDY    71  59  65 VRB3      30.06R
PRAIRIE DU CHI FAIR      72  56  58 W3        30.05R
PLATTEVILLE    CLOUDY    68  62  79 CALM      30.06S
$$

WIZ056-057-062-063-064-067-068-222300-
SOUTH CENTRAL WISCONSIN

CITY           SKY/WX    TMP DP  RH WIND       PRES   REMARKS
REEDSBURG      CLOUDY    66  59  79 CALM      30.06F
BARABOO/DELLS  CLOUDY    65  56  74 CALM      30.07S
LONE ROCK      NOT AVBL
MINERAL POINT  CLOUDY    68  61  77 N3        30.07S
MADISON        PTSUNNY   68  58  70 CALM      30.05F
MIDDLETON      CLOUDY    68  59  73 NW6       30.07S
WATERTOWN      CLOUDY    65  59  78 CALM      30.06S
MONROE         CLOUDY    66  59  77 NW5       30.06R
JANESVILLE     PTSUNNY   70  59  68 NW8       30.05F
$$

WIZ051-052-058>065-066-070>072-222300-
SOUTHEAST WISCONSIN

CITY           SKY/WX    TMP DP  RH WIND       PRES   REMARKS
MILWAUKEE      FAIR      63  56  78 E7        30.05S
WAUKESHA       PTSUNNY   64  55  72 W7        30.07R
MILWAUKEE/TIMM CLOUDY    66  54  63 VRB3      30.06R
RACINE         FAIR      58  51  78 E7        30.07S
BURLINGTON     PTSUNNY   65  56  72 CALM      30.05S
KENOSHA        FAIR      68  58  70 NW7       30.05S
FOND DU LAC    PTSUNNY   68  57  68 W6        30.05R
SHEBOYGAN      FAIR      70  57  63 NW5       30.03S
WEST BEND      CLOUDY    66  59  77 W8        30.05S
JUNEAU         CLOUDY    64  57  77 CALM      30.07S
$$

LSZ147-162-222300-
LAKE SUPERIOR

STATION/POSITION TIME  TEMP    WIND        PRES    WAVE
                       AIR SEA DIR/SP/G            HT/PER
                 (UTC) (F)     (DEG/KT/KT) (MB)    (FT/S)
W MID LAKE BUOY  2050   45 36  220/  8/  8 1016.4F   0
DEVILS ISLAND    2100   69     230/  5/  6 1015.9F
SAXON HARBOR     2140   65      50/  7/  7 1015.6S
$$

LMZ867-665-643>646-222300-
LAKE MICHIGAN

STATION/POSITION TIME  TEMP    WIND        PRES    WAVE
                       AIR SEA DIR/SP/G            HT/PER
                 (UTC) (F)     (DEG/KT/KT) (MB)    (FT/S)
N MID LAKE BUOY  2140   41 38  200/  8/  8 1016.3F
NORTHPORT PIER   2140   59     150/  4/  6 1015.9F
KEWAUNEE LAKESHO 2130   51     160/  5/  6 1016.6F
SHEBOYGAN LAKESH 2100   50     140/  7/  7 1017.5F
PORT WASHINGTON  2130   53     140/  3/  4 1018.6S
ATWATER BUOY     2107   49 48  130/  4/  6 1017.9    0
MILWAUKEE LAKESH 2130   51     100/  4/  4   N/A
KENOSHA   LAKESH 2100   54                 1017.6
$$

TC  - TEMPERATURE IN CELSIUS
VSB - VISIBILITY IN STATUTE MILES
WCI - WIND CHILL INDEX
HX  - HEAT INDEX




USA.gov is the U.S. government's official web portal to all federal, state and local government web resources and services.